TELKOM 4 (MERAH PUTIH)

Last updated on Wed Sep 09 2026 00:03:02 GMT+0000 (Coordinated Universal Time)

1 43587U 18064A 26251.01132612 -.00000364 00000+0 00000+0 0 9990 2 43587 0.0188 113.6970 0001164 63.4513 282.0093 1.00269671 29712
UTC large
Height (km)
Speed (km/s)
/
Latitude / Longitude
Inclination (degrees)
Orbital Period (minutes)
Azimuth
Elevation
Range (km)
Doppler Factor

Next 0 passes for location: London (51.5072 / 0.1276)

No passes found over London.
TELKOM 4 (MERAH PUTIH)